Location: Góry Miechowskie
(50.3599°N, 20.1803°E)
Time: 14:51:35
(UTC+00:00)

deb Explorer IX - Pass Details

Date: 20 September 2024
Orbit: 504 x 830 km, 38.7° (Epoch: 04 October)

Event Time Altitude Azimuth Distance (km) Brightness Sun altitude
Rises 19:42:49 0° 257° (WSW) 3,398 ? -27.5°
Reaches altitude 10° 19:45:54 10° 243° (WSW) 2,474 ? -27.9°
Enters shadow 19:48:31 19° 219° (SW) 1,912 ? -28.2°
